MIKKELI current weather conditions

sailwx.info

Wind at 1 knots

Air temperature -2.0° C
Visibility: greater than 1.1 NM
Dewpoint -3.0° C
Present weather: Snow.

Last reported at 2020-Jan-26 06:50 UTC.
Time now 2020-Jan-26 07:59 UTC

Location: N 61°41' E 027°12'.
View on Google Maps.

See reports from other nearby stations

  
Tides and Currents Weather Stations Pressure Air Temp Water Temp Dewpoint Dewpoint Depression Visibility Wind Speed Wind Dir Waves Ship Positions
date/time (UTC)wind fromknots sea level pressurealtimeterstation pressurevisibilityair tempwater tempwave heightnotes
2020-Jan-26 06:50 1.1-2.0 Snow.
2020-Jan-26 06:20 140 2 0.5-3.0 Snow.
2020-Jan-26 05:50 130 5 0.3-3.0 Heavy snow.
2020-Jan-26 05:20 120 4 0.2-3.0 Heavy snow.
2020-Jan-26 04:50 100 6 0.3-3.0 Heavy snow.
2020-Jan-26 04:20 130 4 0.3-3.0 Snow.
2020-Jan-26 03:50 130 2 0.8-4.0 Snow.
2020-Jan-26 03:20 100 1 0.8-4.0 Snow.
2020-Jan-26 02:50 100 1 0.5-5.0 Snow.
2020-Jan-26 02:20 110 0 5.4-5.0
2020-Jan-26 01:50 100 0 5.4-6.0
2020-Jan-26 01:20 5.4-5.0
2020-Jan-26 00:50 250 1 5.4-5.0
2020-Jan-26 00:20 240 4 5.4-5.0
2020-Jan-25 23:50 230 1 5.4-6.0
2020-Jan-25 23:20 250 2 5.4-6.0
2020-Jan-25 22:50 280 2 5.4-7.0
2020-Jan-25 22:20 270 2 5.4-7.0
2020-Jan-25 21:50 250 1 5.4-7.0
2020-Jan-25 21:20 260 2 5.4-6.0
2020-Jan-25 20:50 250 2 5.4-6.0
2020-Jan-25 20:20 270 2 5.4-6.0
2020-Jan-25 19:50 260 2 5.4-6.0
2020-Jan-25 19:20 250 2 5.4-7.0
2020-Jan-25 18:50 250 4 5.4-8.0
2020-Jan-25 18:20 260 5 5.4-6.0
2020-Jan-25 17:50 270 6 5.4-5.0
2020-Jan-25 17:20 270 6 5.4-5.0
2020-Jan-25 16:50 270 6 5.4-5.0
2020-Jan-25 16:20 270 6 5.4-4.0
2020-Jan-25 15:50 280 6 5.4-4.0
2020-Jan-25 15:20 270 6 5.4-3.0
2020-Jan-25 14:50 280 6 5.4-3.0
2020-Jan-25 14:20 280 5 5.4-3.0
2020-Jan-25 13:50 280 8 5.4-2.0
2020-Jan-25 13:20 280 9 5.4-1.0
2020-Jan-25 12:50 280 11 5.4-1.0
2020-Jan-25 12:20 280 13 5.4-1.0
2020-Jan-25 11:50 290 12 5.4-1.0
2020-Jan-25 11:20 290 13 5.4-1.0
2020-Jan-25 10:50 280 11 5.4-1.0
2020-Jan-25 10:20 270 11 5.4-1.0
2020-Jan-25 09:50 270 13 5.4-1.0
2020-Jan-25 09:20 280 13 5.4-1.0
2020-Jan-25 08:50 270 12 5.4-1.0
2020-Jan-25 08:20 270 13 5.4-1.0
2020-Jan-25 07:50 270 12 5.4-1.0
2020-Jan-25 07:20 270 15 5.4-1.0
2020-Jan-25 06:50 270 14 5.4-1.0
2020-Jan-25 06:20 280 15 5.4-1.0
2020-Jan-25 05:50 270 13 5.4-1.0
2020-Jan-25 05:20 270 13 5.4-2.0
2020-Jan-25 04:50 270 12 5.4-1.0
2020-Jan-25 04:20 270 11 5.4-2.0
2020-Jan-25 03:50 270 12 5.4-1.0
2020-Jan-25 03:20 270 13 5.4-0.0
2020-Jan-25 02:50 270 9 5.4-0.0
2020-Jan-25 02:20 260 13 5.4-0.0
2020-Jan-25 01:50 250 12 5.4-0.0
2020-Jan-25 01:20 250 11 5.4-1.0
2020-Jan-25 00:50 250 6 5.4-1.0
2020-Jan-25 00:20 240 6 5.4-2.0
2020-Jan-24 23:50 240 6 5.4-1.0 Light snow.
2020-Jan-24 23:20 240 6 2.3-1.0 Light snow.
2020-Jan-24 22:50 230 6 5.4-2.0
2020-Jan-24 22:20 230 6 5.4-2.0
2020-Jan-24 21:50 230 6 5.4-2.0
2020-Jan-24 21:20 240 6 5.4-2.0
2020-Jan-24 20:50 230 6 5.4-2.0
2020-Jan-24 20:20 230 6 5.4-1.0
2020-Jan-24 19:50 240 6 5.4-1.0
2020-Jan-24 19:20 240 6 5.4-1.0
2020-Jan-24 18:50 250 5 5.4-3.0
2020-Jan-24 18:20 250 5 5.4-2.0
2020-Jan-24 17:50 240 6 5.4-1.0
2020-Jan-24 17:20 250 6 5.4-1.0
2020-Jan-24 16:50 250 6 5.4-1.0
2020-Jan-24 16:20 250 6 5.4-1.0
2020-Jan-24 15:50 250 6 5.4-1.0
2020-Jan-24 15:20 250 6 5.4-1.0
2020-Jan-24 14:50 260 7 5.4-0.0
2020-Jan-24 14:20 270 5 5.4-0.0
2020-Jan-24 13:50 250 1 5.4-1.0
2020-Jan-24 13:20 250 4 5.4-1.0
2020-Jan-24 12:50 250 5 5.4-0.0
2020-Jan-24 12:20 250 4 5.4-0.0
2020-Jan-24 11:50 250 5 5.4-0.0
2020-Jan-24 11:20 250 4 5.4-0.0
2020-Jan-24 10:50 260 7 5.4 1.0
2020-Jan-24 10:20 260 6 5.4-0.0
2020-Jan-24 09:50 260 7 5.4-0.0
2020-Jan-24 09:20 250 8 5.4-0.0
2020-Jan-24 08:50 250 7 5.4-0.0
2020-Jan-24 08:20 250 6 5.4-1.0
2020-Jan-24 07:50 260 5 5.4-1.0
2020-Jan-24 07:20 260 6 5.4-2.0